Flight Briefing for CPX261

Departure Arrival
Kansas City International Airport (KMCI)
Click to view FAA NOTAMS
General Edward Lawrence Logan International Airport (KBOS)
Click to view FAA NOTAMS
Departure Time Arrival Time
N/A N/A
Aircraft Distance
B767-300BDSF 1090nm
Departure METAR Arrival METAR
KMCI 230653Z 00000KT 10SM FEW200 12/09 A2998 RMK AO2 SLP147 T01220094 KBOS 230654Z 20007KT 10SM OVC110 13/06 A3027 RMK AO2 SLP248 T01280061
Suggested Route
LAKES2 SPI ROD KLYNE Q29 JHW Q82 PONCT JFUND2


View recent IFR Routes data
Notes
METROAIR CARGO SUPPORT

Charts and Procedures

Charts for KMCI
No chart available
Charts for KBOS
No chart available

Windy.com Weather Map